Flag for USA

Past Weather in Rancho Santa Margarita, California, USA — Yesterday and Last 2 Weeks

Now
96 °F

Sunny.


Feels Like: 93 °F
Forecast: 98 / 75 °F
Wind: 6 mph from North

Location: John Wayne Airport-Orange County Airport
Current Time: Oct 1, 2020 at 1:41:20 pm
Latest Report: Oct 1, 2020 at 12:53 pm
Visibility: 10 mi
Pressure29.89 "Hg
Humidity: 20%
Dew Point: 49 °F
Location of Rancho Santa MargaritaLocation

Past Weather in Rancho Santa Margarita — Graph

°F

Rancho Santa Margarita Temperature Yesterday

Maximum temperature yesterday: 99 °F (at 4:53 pm)
Minimum temperature yesterday: 68 °F (at 5:53 am)
Average temperature yesterday: 82 °F

High & Low Weather Summary for the Past Weeks

 TemperatureHumidityPressure
High99 °F (Sep 30, 4:53 pm)93% (Sep 29, 5:37 am)30.03 "Hg (Sep 29, 5:37 am)
Low64 °F (Sep 23, 5:53 am)14% (Sep 17, 2:53 pm)29.79 "Hg (Sep 19, 5:53 pm)
Average74 °F66%29.90 "Hg
* Reported Sep 16 11:53 am — Oct 1 11:53 am, Rancho Santa Margarita. Weather by CustomWeather, © 2020

Note: Actual official high and low records may vary slightly from our data, if they occured in-between our weather recording intervals... More about our weather records

Rancho Santa Margarita Weather History for the Previous 24 Hours

Scroll right to see more
 ConditionsComfort  
Time TempWeatherWind HumidityBarometerVisibility
11:53 am
Thu, Oct 1
94 °FSunny.5 mph25%29.90 "Hg10 mi
10:53 am90 °FSunny.No wind27%29.91 "Hg10 mi
9:53 am84 °FSunny.No wind35%29.92 "Hg10 mi
8:53 am78 °FSunny.No wind39%29.92 "Hg10 mi
7:53 am72 °FSunny.No wind49%29.91 "Hg10 mi
6:53 am68 °FSunny.No wind63%29.89 "Hg10 mi
5:53 am69 °FClear.No wind63%29.88 "Hg10 mi
4:53 am70 °FClear.No wind61%29.88 "Hg10 mi
3:53 am71 °FClear.No wind61%29.88 "Hg10 mi
2:53 am71 °FClear.No wind68%29.88 "Hg10 mi
1:53 am73 °FClear.No wind64%29.88 "Hg10 mi
12:53 am74 °FClear.No wind60%29.89 "Hg10 mi
11:53 pm
Wed, Sep 30
74 °FClear.3 mph69%29.89 "Hg10 mi
10:53 pm75 °FClear.6 mph62%29.89 "Hg10 mi
9:53 pm80 °FClear.6 mph47%29.88 "Hg10 mi
8:53 pm83 °FClear.No wind38%29.87 "Hg10 mi
7:53 pm84 °FClear.5 mph36%29.87 "Hg10 mi
6:53 pm93 °FClear.6 mph18%29.85 "Hg10 mi
5:53 pm97 °FSunny.3 mph21%29.84 "Hg10 mi
4:53 pm99 °FSunny.6 mph21%29.83 "Hg10 mi
3:53 pm98 °FSunny.8 mph20%29.84 "Hg10 mi
2:53 pm97 °FPassing clouds.8 mph19%29.85 "Hg10 mi
1:53 pm94 °FPassing clouds.9 mph28%29.87 "Hg10 mi
Weather by CustomWeather, © 2020

See weather overview